DW2199 Weather Reports


Display with metric or nautical units.
time (UTC)temp
F
wind
direction
speed
MPH
gust
MPH
rain 1hr
in
rain 24hr
in
rain mn
in
humidity
%
barometer
mb
20260903190005 85 195 0.0 3.0 0.00 0.00 0.00 70 1010.1
20260903184604 82 226 0.0 4.0 0.00 0.00 0.00 74 1010.3
20260903183056 80 219 0.0 2.0 0.00 0.00 0.00 78 1010.3
20260903181642 79 201 0.0 4.0 0.00 0.00 0.00 78 1010.4
20260903180038 79 186 0.0 4.0 0.00 0.00 0.00 80 1010.6
20260903174554 79 173 0.0 6.0 0.00 0.00 0.00 79 1010.9
20260903173031 77 207 0.0 4.0 0.00 0.00 0.00 83 1010.9
20260903171532 75 6 0.0 3.0 0.00 0.00 0.00 85 1011.1
20260903170024 73 191 0.0 2.0 0.00 0.00 0.00 87 1011.4
20260903164521 73 219 0.0 2.0 0.00 0.00 0.00 87 1011.4
20260903163017 73 183 0.0 3.0 0.00 0.00 0.00 88 1011.5
20260903161558 72 193 0.0 2.0 0.00 0.00 0.00 89 1011.7
20260903160054 71 186 0.0 3.0 0.00 0.00 0.00 90 1011.9
20260903154544 71 201 0.0 2.0 0.00 0.00 0.00 91 1012.0
20260903153045 71 207 0.0 1.0 0.00 0.00 0.00 92 1012.1
20260903151549 70 197 0.0 2.0 0.00 0.00 0.00 94 1012.3
20260903150039 69 194 0.0 3.0 0.00 0.00 0.00 93 1012.4
20260903144539 69 210 0.0 1.0 0.00 0.00 0.00 93 1012.2
20260903143042 70 193 0.0 1.0 0.00 0.00 0.00 93 1012.2
20260903141536 70 360 0.0 1.0 0.00 0.00 0.00 95 1012.1
20260903140034 68 359 0.0 1.0 0.00 0.00 0.00 95 1012.2
20260903134516 68 359 0.0 4.0 0.00 0.00 0.00 95 1012.4
20260903133016 68 11 0.0 2.0 0.00 0.00 0.00 97 1012.5
20260903131504 67 20 0.0 3.0 0.00 0.00 0.00 96 1012.4
20260903130002 67 7 0.0 2.0 0.00 0.00 0.00 96 1012.5
20260903124501 66 6 0.0 3.0 0.00 0.00 0.00 97 1012.4
20260903123003 66 354 0.0 2.0 0.00 0.00 0.00 97 1012.6
20260903121500 66 176 0.0 2.0 0.00 0.00 0.00 97 1012.4
20260903120001 66 226 0.0 3.0 0.00 0.00 0.00 97 1012.5
20260903114607 66 168 0.0 2.0 0.00 0.00 0.00 97 1012.7
20260903113100 66 166 0.0 2.0 0.00 0.00 0.00 97 1012.6
20260903111619 65 165 1.0 4.0 0.00 0.00 0.00 97 1012.5
20260903110054 65 191 0.0 3.0 0.00 0.00 0.00 97 1012.6
20260903104600 65 186 0.0 3.0 0.00 0.00 0.00 97 1012.5
20260903103046 65 187 0.0 2.0 0.00 0.00 0.00 97 1012.5
20260903101548 65 190 0.0 3.0 0.00 0.00 0.00 97 1012.5
20260903100045 65 200 0.0 3.0 0.00 0.00 0.00 96 1012.5
20260903094552 65 203 0.0 1.0 0.00 0.00 0.00 96 1012.4
20260903093047 65 197 0.0 2.0 0.00 0.00 0.00 96 1012.3
20260903091544 65 174 0.0 1.0 0.00 0.00 0.00 96 1012.3
20260903090033 65 338 0.0 1.0 0.00 0.00 0.00 96 1012.5
20260903084535 65 338 0.0 1.0 0.00 0.00 0.00 96 1012.5
20260903083031 65 191 0.0 3.0 0.00 0.00 0.00 96 1012.6
20260903081530 64 190 0.0 2.0 0.00 0.00 0.00 96 1013.0
20260903080028 64 190 0.0 1.0 0.00 0.00 0.00 96 1012.9
20260903074527 64 186 0.0 3.0 0.00 0.00 0.00 96 1013.1
20260903073036 64 186 0.0 2.0 0.00 0.00 0.00 95 1013.1
20260903071526 65 192 0.0 1.0 0.00 0.00 0.00 95 1013.1
20260903070015 65 193 0.0 1.0 0.00 0.00 0.00 94 1013.0
20260903064513 65 165 0.0 2.0 0.00 0.00 0.00 94 1013.1
20260903063011 65 172 0.0 2.0 0.00 0.00 0.00 93 1013.2
20260903061528 65 186 0.0 2.0 0.00 0.00 0.00 93 1013.4
20260903060010 64 186 0.0 4.0 0.00 0.00 0.00 92 1013.1
20260903054509 64 203 0.0 2.0 0.00 0.00 0.00 93 1013.3
20260903053008 64 94 0.0 2.0 0.00 0.00 0.00 93 1013.6
20260903051507 65 213 0.0 3.0 0.00 0.00 0.00 92 1013.7
20260903050054 65 170 1.0 3.0 0.00 0.00 0.00 90 1014.3
20260903044603 65 214 0.0 3.0 0.00 0.00 0.00 89 1014.2
20260903043053 65 167 0.0 2.0 0.00 0.00 0.00 88 1013.3
20260903041554 65 215 1.0 5.0 0.00 0.00 0.00 88 1013.6
20260903040049 65 115 1.0 6.0 0.00 0.00 0.00 87 1013.7
20260903034549 65 184 1.0 5.0 0.00 0.00 0.00 89 1013.8
20260903033052 65 163 0.0 2.0 0.00 0.00 0.00 90 1014.1
20260903031550 65 172 0.0 3.0 0.00 0.00 0.00 90 1014.0
20260903030101 66 174 0.0 2.0 0.00 0.00 0.00 89 1014.2
20260903024529 66 207 0.0 4.0 0.00 0.00 0.00 88 1014.5
20260903023027 67 148 0.0 8.0 0.00 0.00 0.00 86 1014.8
20260903021526 68 201 0.0 4.0 0.00 0.00 0.00 84 1015.0
20260903020025 68 103 1.0 7.0 0.00 0.00 0.00 84 1014.9
20260903014527 68 195 0.0 5.0 0.00 0.00 0.00 83 1015.4
20260903013037 67 177 0.0 7.0 0.00 0.00 0.00 83 1015.9
20260903011524 67 188 0.0 3.0 0.00 0.00 0.00 84 1016.1
20260903010021 68 188 0.0 1.0 0.00 0.00 0.00 85 1016.0
20260903004509 68 187 0.0 3.0 0.00 0.00 0.00 84 1015.9
20260903003009 68 198 0.0 3.0 0.00 0.00 0.00 84 1015.8
20260903001508 68 190 0.0 1.0 0.00 0.00 0.00 85 1015.5
20260903000007 68 187 0.0 2.0 0.00 0.00 0.00 85 1015.4
20260902234507 68 188 0.0 2.0 0.00 0.00 0.00 84 1014.9
20260902233006 68 194 0.0 4.0 0.00 0.00 0.00 84 1015.2
20260902231505 69 195 0.0 7.0 0.00 0.00 0.00 84 1014.9
20260902230050 69 221 0.0 4.0 0.00 0.00 0.00 85 1015.3
20260902224559 69 190 0.0 2.0 0.00 0.00 0.00 85 1015.9
20260902223052 69 210 0.0 5.0 0.00 0.00 0.00 85 1016.1
20260902221557 69 194 0.0 3.0 0.00 0.00 0.00 85 1017.2
20260902220054 70 198 0.0 0.0 0.00 0.00 0.00 85 1017.4
20260902214541 70 198 0.0 1.0 0.00 0.00 0.00 83 1017.5
20260902213041 70 195 0.0 1.0 0.00 0.00 0.00 83 1017.3
20260902211539 70 198 0.0 1.0 0.00 0.00 0.00 82 1017.0
20260902210045 70 190 0.0 1.0 0.00 0.00 0.00 81 1017.3
20260902204542 70 190 0.0 1.0 0.00 0.00 0.00 82 1017.3
20260902203025 70 207 0.0 2.0 0.00 0.00 0.00 81 1017.3
20260902201540 70 181 0.0 2.0 0.00 0.00 0.00 79 1017.5
20260902200024 70 203 0.0 1.0 0.00 0.00 0.00 80 1017.6
20260902194531 71 203 0.0 1.0 0.00 0.00 0.00 80 1017.7
20260902193037 70 203 0.0 1.0 0.00 0.00 0.00 81 1017.6
20260902191520 70 186 0.0 0.0 0.00 0.00 0.00 83 1017.9